Mexico City Airport, Mexico

2:16 PM CST on November 20, 2017 (GMT -0600)
Lic Benito Juarez International

Weather History for MMMX - May, 2011

Change the Weather History Date:

Monday, May 30, 2011

  Actual Average Record
Temperature  
Mean Temperature 70 °F -  
Max Temperature 86 °F 75 °F 86 °F (2011)
Min Temperature 55 °F 54 °F 51 °F (2012)
Cooling Degree Days 6    
Growing Degree Days 20 (Base 50)    
Moisture  
Dew Point 45 °F    
Average Humidity 44    
Maximum Humidity 73    
Minimum Humidity 15    
Precipitation  
Precipitation 0.00 in - - ()
Sea Level Pressure  
Sea Level Pressure 30.10 in    
Wind  
Wind Speed 6 mph ()    
Max Wind Speed 20 mph    
Max Gust Speed 31 mph    
Visibility 5.8 miles    
Events Rain , Thunderstorm    
Averages and records for this station are not official NWS values.
T = Trace of Precipitation, MM = Missing Value Source: Averaged Metar Reports

Daily Weather History Graph

Daily Weather History Graph

Search for Another Location

Airport or City:

Trip Planner

Search our weather history database for the weather conditions in past years. The results will help you decide how hot, cold, wet, or windy it might be!

Date:

Astronomy

May. 30, 2011 Rise Set
Actual Time 6:57 AM CDT 8:10 PM CDT
Civil Twilight 6:33 AM CDT 8:34 PM CDT
Nautical Twilight 6:05 AM CDT 9:03 PM CDT
Astronomical Twilight 5:35 AM CDT 9:32 PM CDT
Moon 5:07 AM CDT (5/30) 6:28 PM CDT (5/30)
Length of Visible Light 14h 00m
Length of Day
13h 12m
Waning Crescent, 5% of the Moon is Illuminated
May 30
Waning Crescent
Jun 1
New
Jun 8
First Quarter
Jun 15
Full
Jun 23
Last Quarter

Hourly Weather History & Observations

Time (CDT) Temp. Dew Point Humidity Pressure Visibility Wind Dir Wind Speed Gust Speed Precip Events Conditions
12:45 AM 68.0 °F 44.6 °F 43% 29.60 in 10.0 mi NW 6.9 mph - N/A   Clear
1:45 AM 66.2 °F 42.8 °F 43% 30.25 in 10.0 mi West 10.4 mph - N/A   Clear
2:45 AM 64.4 °F 41.0 °F 42% 30.23 in 10.0 mi West 8.1 mph - N/A   Clear
3:50 AM 64.4 °F 37.4 °F 37% 29.55 in 12.0 mi West 6.9 mph - N/A   Clear
4:47 AM 64.4 °F 41.0 °F 42% 30.22 in 12.0 mi West 3.5 mph - N/A   Clear
5:47 AM 57.2 °F 41.0 °F 55% 30.22 in 10.0 mi NE 8.1 mph - N/A   Clear
6:45 AM 55.4 °F 41.0 °F 58% 29.61 in 7.0 mi NE 5.8 mph - N/A   Partly Cloudy
7:22 AM 57.2 °F 41.0 °F 55% 30.24 in 5.0 mi NNE 4.6 mph - N/A   Mostly Cloudy
7:48 AM 59.0 °F 41.0 °F 51% 30.25 in 4.0 mi NNE 3.5 mph - N/A   Mostly Cloudy
8:25 AM 60.8 °F 41.0 °F 48% 30.27 in 4.0 mi NE 3.5 mph - N/A   Scattered Clouds
8:47 AM 62.6 °F 42.8 °F 48% 30.27 in 3.0 mi ENE 4.6 mph - N/A   Haze
9:13 AM 66.2 °F 44.6 °F 46% 30.28 in 3.0 mi NNE 3.5 mph - N/A   Haze
9:21 AM 68.0 °F 44.6 °F 43% 30.28 in 3.0 mi East 3.5 mph - N/A   Haze
9:45 AM 68.0 °F 44.6 °F 43% 29.70 in 3.0 mi ENE 3.5 mph - N/A   Haze
10:22 AM 69.8 °F 44.6 °F 40% 30.28 in 3.0 mi NE 3.5 mph - N/A   Haze
10:45 AM 73.4 °F 48.2 °F 41% 30.28 in 3.0 mi ENE 2.3 mph - N/A   Haze
10:46 AM 73.4 °F 48.2 °F 41% 30.28 in 3.0 mi ENE 2.3 mph - N/A   Haze
11:46 AM 75.2 °F 46.4 °F 36% 30.27 in 4.0 mi Calm Calm - N/A   Clear
12:54 PM 77.0 °F 44.6 °F 32% 29.63 in 5.0 mi NE 6.9 mph - N/A   Clear
1:21 PM 80.6 °F 44.6 °F 28% 30.24 in 5.0 mi SE 3.5 mph - N/A   Clear
1:45 PM 82.4 °F 39.2 °F 21% 30.23 in 6.0 mi NNE 9.2 mph - N/A   Clear
2:45 PM 82.4 °F 37.4 °F 20% 30.21 in 6.0 mi NNE 5.8 mph - N/A   Scattered Clouds
3:45 PM 84.2 °F 35.6 °F 18% 29.56 in 6.0 mi Calm Calm - N/A   Scattered Clouds
4:52 PM 86.0 °F 33.8 °F 15% 30.14 in 6.0 mi NNW 8.1 mph - N/A   Mostly Cloudy
5:07 PM 82.4 °F 46.4 °F 28% 30.14 in 5.0 mi East 9.2 mph 21.9 mph N/A   Mostly Cloudy
5:25 PM 78.8 °F 46.4 °F 32% 30.14 in 5.0 mi East 13.8 mph 25.3 mph N/A   Overcast
5:44 PM 78.8 °F 46.4 °F 32% 30.14 in 5.0 mi East 13.8 mph 27.6 mph N/A   Overcast
5:58 PM 77.0 °F 48.2 °F 36% 30.15 in 5.0 mi East 16.1 mph 27.6 mph N/A Rain Light Rain
6:13 PM 75.2 °F 48.2 °F 38% 30.15 in 5.0 mi ENE 19.6 mph 31.1 mph N/A Rain , Thunderstorm Thunderstorms and Rain
6:25 PM 71.6 °F 48.2 °F 43% 30.19 in 5.0 mi ENE 13.8 mph 27.6 mph N/A Rain , Thunderstorm Thunderstorms and Rain
6:30 PM 68.0 °F 50.0 °F 52% 30.19 in 5.0 mi ENE 16.1 mph - N/A Rain , Thunderstorm Light Thunderstorms and Rain
6:44 PM 68.0 °F 50.0 °F 52% 29.73 in 5.0 mi ENE 16.1 mph 27.6 mph N/A Rain , Thunderstorm Light Thunderstorms and Rain
7:16 PM 66.2 °F 53.6 °F 64% 30.19 in 5.0 mi NNW 5.8 mph - N/A   Overcast
7:37 PM 66.2 °F 53.6 °F 64% 30.21 in 5.0 mi NNE 10.4 mph - N/A   Overcast
7:47 PM 66.2 °F 57.2 °F 73% 30.22 in 5.0 mi ENE 6.9 mph - N/A   Overcast
8:45 PM 66.2 °F 55.4 °F 68% 30.25 in 5.0 mi NE 3.5 mph - N/A   Overcast
9:45 PM 66.2 °F 53.6 °F 64% 29.76 in 5.0 mi NW 3.5 mph - N/A   Overcast
9:46 PM 66.2 °F 53.6 °F 64% 29.76 in 5.0 mi NW 3.5 mph - N/A   Overcast
10:46 PM 66.2 °F 50.0 °F 56% 30.28 in 8.0 mi NNW 9.2 mph - N/A   Overcast
11:45 PM 66.2 °F 48.2 °F 52% 30.32 in 10.0 mi North 6.9 mph - N/A   Scattered Clouds